IW7DVM-13 Weather Reports


Display with metric or nautical units.
time (UTC)temp
F
wind
direction
speed
MPH
gust
MPH
rain 1hr
in
rain 24hr
in
rain mn
in
humidity
%
barometer
mb
20260902135004 89 190 2.0 8.0 0.00 0.00 0.00 58 1009.5
20260902134503 89 196 3.0 5.0 0.00 0.00 0.00 56 1009.7
20260902134003 89 185 3.0 6.0 0.00 0.00 0.00 58 1009.6
20260902133503 89 174 3.0 6.0 0.00 0.00 0.00 59 1009.5
20260902133003 89 158 3.0 6.0 0.00 0.00 0.00 59 1009.7
20260902132503 90 156 3.0 5.0 0.00 0.00 0.00 59 1009.8
20260902132003 90 149 3.0 9.0 0.00 0.00 0.00 58 1009.5
20260902131503 91 152 4.0 11.0 0.00 0.00 0.00 57 1009.6
20260902131003 92 177 4.0 9.0 0.00 0.00 0.00 54 1009.6
20260902130503 92 172 4.0 9.0 0.00 0.00 0.00 53 1009.7
20260902130003 92 179 5.0 9.0 0.00 0.00 0.00 55 1009.8
20260902125503 92 193 4.0 7.0 0.00 0.00 0.00 56 1009.9
20260902125003 93 170 6.0 10.0 0.00 0.00 0.00 54 1009.9
20260902124503 95 165 4.0 8.0 0.00 0.00 0.00 49 1009.9
20260902124003 94 187 3.0 5.0 0.00 0.00 0.00 50 1009.9
20260902123503 93 213 3.0 9.0 0.00 0.00 0.00 52 1009.9
20260902123003 92 195 4.0 9.0 0.00 0.00 0.00 52 1010.0
20260902122503 91 194 6.0 13.0 0.00 0.00 0.00 55 1010.2
20260902122003 92 204 5.0 12.0 0.00 0.00 0.00 57 1010.3
20260902121503 91 190 5.0 9.0 0.00 0.00 0.00 57 1010.3
20260902121004 91 200 5.0 12.0 0.00 0.00 0.00 56 1010.2
20260902120503 91 186 7.0 13.0 0.00 0.00 0.00 56 1010.2
20260902120003 91 201 6.0 13.0 0.00 0.00 0.00 57 1010.4
20260902115503 91 206 7.0 12.0 0.00 0.00 0.00 54 1010.4
20260902115003 92 204 5.0 10.0 0.00 0.00 0.00 54 1010.4
20260902114503 92 204 6.0 9.0 0.00 0.00 0.00 51 1010.5
20260902114003 92 206 6.0 10.0 0.00 0.00 0.00 50 1010.6
20260902113503 92 198 5.0 10.0 0.00 0.00 0.00 50 1010.5
20260902113003 92 210 4.0 9.0 0.00 0.00 0.00 50 1010.6
20260902112503 92 201 6.0 12.0 0.00 0.00 0.00 51 1010.6
20260902112003 92 205 5.0 11.0 0.00 0.00 0.00 47 1010.7
20260902111503 92 197 4.0 8.0 0.00 0.00 0.00 49 1010.7
20260902111003 92 191 4.0 8.0 0.00 0.00 0.00 49 1010.8
20260902110503 91 201 6.0 9.0 0.00 0.00 0.00 51 1010.9
20260902110005 91 197 5.0 10.0 0.00 0.00 0.00 52 1011.0
20260902105503 91 192 6.0 10.0 0.00 0.00 0.00 51 1010.9
20260902105003 91 190 5.0 10.0 0.00 0.00 0.00 54 1011.0
20260902104503 90 203 5.0 9.0 0.00 0.00 0.00 54 1011.2
20260902104003 90 214 6.0 10.0 0.00 0.00 0.00 53 1011.3
20260902103503 90 209 6.0 10.0 0.00 0.00 0.00 54 1011.3
20260902103003 90 203 5.0 10.0 0.00 0.00 0.00 56 1011.4
20260902102503 90 212 6.0 11.0 0.00 0.00 0.00 56 1011.2
20260902102003 89 198 5.0 10.0 0.00 0.00 0.00 58 1011.2
20260902101503 89 211 6.0 12.0 0.00 0.00 0.00 58 1011.3
20260902101003 89 217 7.0 11.0 0.00 0.00 0.00 59 1011.3
20260902100503 89 206 5.0 11.0 0.00 0.00 0.00 58 1011.4
20260902100003 89 205 5.0 11.0 0.00 0.00 0.00 59 1011.4
20260902095503 89 211 5.0 9.0 0.00 0.00 0.00 59 1011.6
20260902095003 89 206 5.0 9.0 0.00 0.00 0.00 59 1011.3
20260902094503 89 201 6.0 9.0 0.00 0.00 0.00 60 1011.3
20260902094003 89 210 5.0 9.0 0.00 0.00 0.00 59 1011.4
20260902093503 89 205 4.0 9.0 0.00 0.00 0.00 59 1011.3
20260902092503 89 206 5.0 9.0 0.00 0.00 0.00 59 1011.3
20260902092003 89 202 6.0 9.0 0.00 0.00 0.00 58 1011.4
20260902091503 90 206 4.0 8.0 0.00 0.00 0.00 56 1011.6
20260902091003 90 215 4.0 8.0 0.00 0.00 0.00 54 1011.4
20260902090503 89 213 6.0 12.0 0.00 0.00 0.00 53 1011.4
20260902090004 89 222 4.0 7.0 0.00 0.00 0.00 54 1011.6
20260902085503 89 224 4.0 7.0 0.00 0.00 0.00 56 1011.5
20260902085003 88 192 5.0 8.0 0.00 0.00 0.00 56 1011.6
20260902084506 89 200 4.0 7.0 0.00 0.00 0.00 54 1011.5
20260902084003 89 221 2.0 5.0 0.00 0.00 0.00 52 1011.5
20260902083503 89 195 3.0 7.0 0.00 0.00 0.00 53 1011.4
20260902083003 89 198 3.0 7.0 0.00 0.00 0.00 54 1011.5
20260902082503 89 204 4.0 7.0 0.00 0.00 0.00 55 1011.6
20260902082003 89 219 3.0 5.0 0.00 0.00 0.00 54 1011.3
20260902081503 88 215 3.0 5.0 0.00 0.00 0.00 54 1011.4
20260902081003 88 199 3.0 6.0 0.00 0.00 0.00 54 1011.5
20260902080503 88 203 4.0 6.0 0.00 0.00 0.00 54 1011.3
20260902080003 88 193 3.0 6.0 0.00 0.00 0.00 53 1011.4
20260902075503 88 216 2.0 6.0 0.00 0.00 0.00 52 1011.3
20260902075003 88 220 3.0 5.0 0.00 0.00 0.00 51 1011.3
20260902074503 88 210 3.0 6.0 0.00 0.00 0.00 50 1011.4
20260902074003 88 208 3.0 6.0 0.00 0.00 0.00 49 1011.3
20260902073503 88 206 2.0 4.0 0.00 0.00 0.00 48 1011.4
20260902073003 88 223 3.0 6.0 0.00 0.00 0.00 47 1011.5
20260902072503 89 246 2.0 6.0 0.00 0.00 0.00 46 1011.3
20260902072003 88 218 2.0 4.0 0.00 0.00 0.00 47 1011.3
20260902071503 88 288 2.0 4.0 0.00 0.00 0.00 47 1011.3
20260902071003 87 256 2.0 4.0 0.00 0.00 0.00 48 1011.3
20260902070503 87 245 2.0 5.0 0.00 0.00 0.00 49 1011.3
20260902070004 87 269 1.0 3.0 0.00 0.00 0.00 51 1011.3
20260902065503 86 273 1.0 3.0 0.00 0.00 0.00 51 1011.3
20260902065003 86 270 1.0 3.0 0.00 0.00 0.00 52 1011.2
20260902064504 85 244 1.0 4.0 0.00 0.00 0.00 52 1011.4
20260902064003 85 256 2.0 6.0 0.00 0.00 0.00 52 1011.4
20260902063503 84 273 3.0 6.0 0.00 0.00 0.00 53 1011.3
20260902063003 84 270 2.0 4.0 0.00 0.00 0.00 55 1011.3
20260902062503 83 273 3.0 6.0 0.00 0.00 0.00 54 1011.3
20260902062003 83 268 3.0 4.0 0.00 0.00 0.00 55 1011.2
20260902061504 83 262 2.0 4.0 0.00 0.00 0.00 56 1011.2
20260902061003 83 269 3.0 5.0 0.00 0.00 0.00 56 1011.2
20260902060503 83 249 2.0 4.0 0.00 0.00 0.00 57 1011.2
20260902060003 82 274 3.0 6.0 0.00 0.00 0.00 58 1011.2
20260902055503 82 253 3.0 6.0 0.00 0.00 0.00 58 1011.1
20260902055003 82 262 3.0 6.0 0.00 0.00 0.00 59 1011.2
20260902054503 81 266 2.0 4.0 0.00 0.00 0.00 60 1011.2
20260902054003 81 274 2.0 6.0 0.00 0.00 0.00 60 1011.1
20260902053503 81 263 2.0 4.0 0.00 0.00 0.00 60 1011.2
20260902053003 81 270 2.0 5.0 0.00 0.00 0.00 61 1011.2
20260902052503 81 272 1.0 3.0 0.00 0.00 0.00 61 1011.2
20260902052003 80 272 1.0 2.0 0.00 0.00 0.00 61 1011.2
20260902051503 80 271 1.0 3.0 0.00 0.00 0.00 60 1011.1
20260902051003 79 270 0.0 1.0 0.00 0.00 0.00 60 1011.0
20260902050504 79 288 0.0 2.0 0.00 0.00 0.00 59 1011.1
20260902050005 78 315 0.0 1.0 0.00 0.00 0.00 59 1011.0
20260902045503 78 315 0.0 1.0 0.00 0.00 0.00 59 1011.0
20260902045003 77 315 0.0 2.0 0.00 0.00 0.00 59 1011.0
20260902044503 77 298 1.0 2.0 0.00 0.00 0.00 60 1011.0
20260902044003 76 2 0.0 1.0 0.00 0.00 0.00 58 1010.9
20260902043503 75 45 0.0 1.0 0.00 0.00 0.00 57 1010.9
20260902043003 75 0 0.0 0.0 0.00 0.00 0.00 57 1010.8
20260902042503 75 0 0.0 0.0 0.00 0.00 0.00 57 1010.8
20260902042003 75 45 0.0 1.0 0.00 0.00 0.00 56 1010.7
20260902041503 76 0 0.0 0.0 0.00 0.00 0.00 56 1010.8
20260902041003 76 45 0.0 2.0 0.00 0.00 0.00 56 1010.8
20260902040503 76 9 2.0 3.0 0.00 0.00 0.00 56 1010.7
20260902040003 76 270 1.0 2.0 0.00 0.00 0.00 56 1010.6
20260902035503 76 270 0.0 1.0 0.00 0.00 0.00 56 1010.6
20260902035003 76 291 0.0 2.0 0.00 0.00 0.00 56 1010.5
20260902034503 76 315 0.0 1.0 0.00 0.00 0.00 56 1010.6
20260902034003 75 333 1.0 2.0 0.00 0.00 0.00 56 1010.4
20260902033503 75 360 2.0 3.0 0.00 0.00 0.00 56 1010.5
20260902033003 75 5 2.0 3.0 0.00 0.00 0.00 56 1010.5
20260902032503 75 14 3.0 5.0 0.00 0.00 0.00 56 1010.4
20260902032003 76 360 2.0 4.0 0.00 0.00 0.00 56 1010.4
20260902031503 76 20 2.0 4.0 0.00 0.00 0.00 56 1010.5
20260902030003 76 22 3.0 4.0 0.00 0.00 0.00 56 1010.5
20260902025503 76 23 2.0 3.0 0.00 0.00 0.00 56 1010.5
20260902025003 76 22 3.0 4.0 0.00 0.00 0.00 56 1010.5
20260902024503 76 9 3.0 3.0 0.00 0.00 0.00 56 1010.5
20260902024003 76 6 3.0 4.0 0.00 0.00 0.00 56 1010.6
20260902023503 76 11 3.0 4.0 0.00 0.00 0.00 56 1010.7
20260902023003 77 22 3.0 4.0 0.00 0.00 0.00 56 1010.7
20260902022503 77 15 3.0 5.0 0.00 0.00 0.00 56 1010.6
20260902022003 77 19 3.0 6.0 0.00 0.00 0.00 56 1010.6
20260902021503 77 22 3.0 3.0 0.00 0.00 0.00 56 1010.5
20260902021003 77 9 3.0 4.0 0.00 0.00 0.00 56 1010.7
20260902020503 77 359 2.0 3.0 0.00 0.00 0.00 56 1010.7
20260902020003 77 13 3.0 4.0 0.00 0.00 0.00 56 1010.7
20260902015503 77 17 3.0 4.0 0.00 0.00 0.00 56 1010.7
20260902015003 77 16 3.0 5.0 0.00 0.00 0.00 57 1010.7
20260902014503 78 18 3.0 4.0 0.00 0.00 0.00 57 1010.7
20260902014003 78 9 2.0 4.0 0.00 0.00 0.00 57 1010.8
20260902013503 78 18 2.0 3.0 0.00 0.00 0.00 57 1010.8
20260902013003 78 19 2.0 4.0 0.00 0.00 0.00 57 1010.9
20260902012503 78 12 2.0 4.0 0.00 0.00 0.00 57 1010.9
20260902012003 78 3 2.0 4.0 0.00 0.00 0.00 57 1010.7
20260902011503 78 11 2.0 3.0 0.00 0.00 0.00 57 1010.7
20260902011003 78 2 2.0 4.0 0.00 0.00 0.00 57 1010.8
20260902010503 78 22 1.0 2.0 0.00 0.00 0.00 57 1011.0
20260902010003 78 22 1.0 2.0 0.00 0.00 0.00 58 1010.9
20260902005503 78 22 1.0 2.0 0.00 0.00 0.00 58 1010.9
20260902005003 78 22 1.0 2.0 0.00 0.00 0.00 58 1010.9
20260902004503 78 22 1.0 2.0 0.00 0.00 0.00 58 1011.0
20260902004003 78 22 1.0 2.0 0.00 0.00 0.00 58 1010.9
20260902003503 78 0 0.0 0.0 0.00 0.00 0.00 58 1010.9
20260902003003 78 0 0.0 0.0 0.00 0.00 0.00 58 1011.0
20260902002503 78 22 0.0 1.0 0.00 0.00 0.00 58 1011.1
20260902002003 78 22 0.0 1.0 0.00 0.00 0.00 58 1011.1
20260902001503 78 22 1.0 2.0 0.00 0.00 0.00 58 1011.0
20260902001003 78 22 1.0 1.0 0.00 0.00 0.00 58 1010.9
20260902000503 78 22 1.0 2.0 0.00 0.00 0.00 57 1010.9
20260902000003 78 22 1.0 2.0 0.00 0.00 0.00 57 1011.0
20260901235503 78 22 1.0 2.0 0.00 0.00 0.00 57 1011.1
20260901235003 79 24 2.0 4.0 0.00 0.00 0.00 57 1011.2
20260901234503 79 25 3.0 5.0 0.00 0.00 0.00 56 1011.2
20260901234003 79 23 3.0 4.0 0.00 0.00 0.00 56 1011.2
20260901233503 80 20 2.0 4.0 0.00 0.00 0.00 56 1011.2
20260901233003 80 23 3.0 5.0 0.00 0.00 0.00 56 1011.3
20260901232503 81 20 4.0 6.0 0.00 0.00 0.00 56 1011.2
20260901232003 82 2 4.0 7.0 0.00 0.00 0.00 57 1011.3
20260901231503 82 334 3.0 6.0 0.00 0.00 0.00 57 1011.2
20260901231003 82 325 2.0 4.0 0.00 0.00 0.00 57 1011.1
20260901230503 83 322 2.0 4.0 0.00 0.00 0.00 56 1011.0
20260901230003 83 330 2.0 4.0 0.00 0.00 0.00 55 1011.1
20260901225503 83 334 2.0 4.0 0.00 0.00 0.00 54 1011.0
20260901225003 83 300 1.0 3.0 0.00 0.00 0.00 53 1011.0
20260901224503 83 316 1.0 4.0 0.00 0.00 0.00 53 1010.9
20260901224003 83 283 1.0 2.0 0.00 0.00 0.00 53 1011.1
20260901223503 83 0 0.0 0.0 0.00 0.00 0.00 54 1011.0
20260901223004 83 247 0.0 1.0 0.00 0.00 0.00 55 1010.9
20260901222503 83 0 0.0 0.0 0.00 0.00 0.00 56 1010.9
20260901222003 83 236 0.0 1.0 0.00 0.00 0.00 57 1010.9
20260901221503 82 230 1.0 3.0 0.00 0.00 0.00 58 1011.2
20260901221003 83 0 0.0 0.0 0.00 0.00 0.00 58 1011.2
20260901220503 83 0 0.0 0.0 0.00 0.00 0.00 58 1011.0
20260901220003 83 360 0.0 1.0 0.00 0.00 0.00 58 1010.9
20260901215503 83 360 0.0 1.0 0.00 0.00 0.00 58 1010.9
20260901215003 83 360 1.0 2.0 0.00 0.00 0.00 58 1011.0
20260901214503 83 360 1.0 2.0 0.00 0.00 0.00 59 1011.0
20260901214003 83 15 1.0 2.0 0.00 0.00 0.00 60 1010.9
20260901213503 82 22 2.0 2.0 0.00 0.00 0.00 61 1010.9
20260901213003 82 22 2.0 2.0 0.00 0.00 0.00 62 1010.9
20260901212503 82 22 2.0 2.0 0.00 0.00 0.00 62 1010.9
20260901212003 82 22 2.0 2.0 0.00 0.00 0.00 63 1010.9
20260901211503 82 22 2.0 2.0 0.00 0.00 0.00 64 1010.8
20260901211003 82 22 1.0 2.0 0.00 0.00 0.00 65 1010.8
20260901210503 82 22 2.0 3.0 0.00 0.00 0.00 66 1010.8
20260901210003 83 22 2.0 2.0 0.00 0.00 0.00 66 1010.9
20260901205503 83 22 1.0 2.0 0.00 0.00 0.00 66 1010.8
20260901205003 83 22 0.0 1.0 0.00 0.00 0.00 66 1010.8
20260901204503 84 20 1.0 2.0 0.00 0.00 0.00 66 1010.8
20260901204003 84 344 2.0 2.0 0.00 0.00 0.00 66 1010.7
20260901203503 84 180 0.0 1.0 0.00 0.00 0.00 66 1010.7
20260901203003 84 0 0.0 0.0 0.00 0.00 0.00 66 1010.7
20260901202503 84 0 0.0 0.0 0.00 0.00 0.00 66 1010.7
20260901202003 85 0 0.0 0.0 0.00 0.00 0.00 66 1010.7
20260901201503 85 0 0.0 0.0 0.00 0.00 0.00 66 1010.8
20260901201003 85 0 0.0 0.0 0.00 0.00 0.00 66 1010.8
20260901200503 85 0 0.0 0.0 0.00 0.00 0.00 66 1010.9
20260901200003 85 0 0.0 0.0 0.00 0.00 0.00 66 1010.8
20260901195503 85 180 0.0 2.0 0.00 0.00 0.00 66 1010.9
20260901195003 85 180 0.0 2.0 0.00 0.00 0.00 65 1011.0
20260901194503 85 180 1.0 2.0 0.00 0.00 0.00 65 1011.0
20260901194004 85 180 1.0 2.0 0.00 0.00 0.00 65 1011.0
20260901193503 86 180 0.0 1.0 0.00 0.00 0.00 65 1011.0
20260901193003 86 180 0.0 2.0 0.00 0.00 0.00 64 1011.0
20260901192503 86 180 1.0 3.0 0.00 0.00 0.00 64 1010.9
20260901192003 87 180 0.0 2.0 0.00 0.00 0.00 63 1010.9
20260901191503 87 180 0.0 2.0 0.00 0.00 0.00 63 1010.7
20260901191003 86 180 0.0 1.0 0.00 0.00 0.00 62 1010.7
20260901190503 86 180 0.0 2.0 0.00 0.00 0.00 61 1010.6
20260901190003 86 180 0.0 1.0 0.00 0.00 0.00 61 1010.7
20260901185503 86 180 1.0 2.0 0.00 0.00 0.00 61 1010.6
20260901185003 87 180 1.0 3.0 0.00 0.00 0.00 61 1010.7
20260901184503 87 150 1.0 2.0 0.00 0.00 0.00 60 1010.6
20260901184003 87 67 0.0 1.0 0.00 0.00 0.00 58 1010.5
20260901183503 88 67 0.0 1.0 0.00 0.00 0.00 57 1010.5
20260901183003 87 67 0.0 2.0 0.00 0.00 0.00 52 1010.5
20260901182503 87 106 0.0 2.0 0.00 0.00 0.00 48 1010.3
20260901182003 87 108 1.0 2.0 0.00 0.00 0.00 48 1010.5
20260901181503 88 36 0.0 2.0 0.00 0.00 0.00 47 1010.3
20260901181003 88 22 0.0 1.0 0.00 0.00 0.00 47 1010.2
20260901180503 88 22 1.0 2.0 0.00 0.00 0.00 46 1010.1
20260901180003 88 21 2.0 3.0 0.00 0.00 0.00 46 1010.1
20260901175503 88 353 3.0 4.0 0.00 0.00 0.00 46 1010.2
20260901175003 89 350 3.0 4.0 0.00 0.00 0.00 46 1010.0
20260901174503 89 311 2.0 4.0 0.00 0.00 0.00 46 1010.1
20260901174003 89 352 2.0 4.0 0.00 0.00 0.00 46 1009.8
20260901173503 89 5 3.0 6.0 0.00 0.00 0.00 46 1009.7
20260901173003 89 8 3.0 6.0 0.00 0.00 0.00 46 1009.5
20260901172503 89 7 4.0 8.0 0.00 0.00 0.00 46 1009.5
20260901172003 89 12 4.0 9.0 0.00 0.00 0.00 46 1009.4
20260901171503 90 11 5.0 10.0 0.00 0.00 0.00 46 1009.3
20260901171003 90 15 7.0 13.0 0.00 0.00 0.00 47 1009.2
20260901170503 90 9 7.0 13.0 0.00 0.00 0.00 48 1009.2
20260901170003 91 9 5.0 9.0 0.00 0.00 0.00 49 1009.5
20260901165503 91 7 6.0 10.0 0.00 0.00 0.00 49 1009.4
20260901165004 91 3 6.0 11.0 0.00 0.00 0.00 49 1009.4
20260901164503 92 8 5.0 10.0 0.00 0.00 0.00 50 1009.1
20260901164003 92 2 6.0 9.0 0.00 0.00 0.00 50 1009.0
20260901163503 92 10 6.0 12.0 0.00 0.00 0.00 48 1009.0
20260901163003 92 17 8.0 14.0 0.00 0.00 0.00 49 1009.1
20260901162503 93 22 7.0 12.0 0.00 0.00 0.00 49 1009.1
20260901162003 93 24 6.0 9.0 0.00 0.00 0.00 48 1009.2
20260901161503 94 19 5.0 8.0 0.00 0.00 0.00 48 1009.1
20260901161003 94 16 7.0 11.0 0.00 0.00 0.00 47 1009.1
20260901160503 95 21 7.0 9.0 0.00 0.00 0.00 47 1009.3
20260901160003 95 11 5.0 10.0 0.00 0.00 0.00 47 1009.2
20260901155503 95 14 5.0 9.0 0.00 0.00 0.00 48 1009.2
20260901155003 95 11 8.0 13.0 0.00 0.00 0.00 48 1009.1
20260901154503 95 20 8.0 14.0 0.00 0.00 0.00 47 1009.1
20260901154003 95 27 7.0 15.0 0.00 0.00 0.00 47 1009.2
20260901153504 95 22 7.0 11.0 0.00 0.00 0.00 48 1009.3
20260901153003 95 22 7.0 12.0 0.00 0.00 0.00 48 1009.1
20260901152503 95 22 5.0 10.0 0.00 0.00 0.00 47 1009.3
20260901152003 96 26 6.0 12.0 0.00 0.00 0.00 47 1009.1
20260901151503 96 15 5.0 11.0 0.00 0.00 0.00 47 1009.1
20260901151003 96 10 8.0 12.0 0.00 0.00 0.00 47 1009.0
20260901150503 95 18 5.0 10.0 0.00 0.00 0.00 48 1009.0
20260901150003 95 29 6.0 10.0 0.00 0.00 0.00 48 1009.0
20260901145503 95 20 6.0 11.0 0.00 0.00 0.00 48 1009.0
20260901145003 96 33 7.0 12.0 0.00 0.00 0.00 48 1008.9
20260901144503 97 34 7.0 12.0 0.00 0.00 0.00 47 1009.1
20260901144003 97 13 10.0 16.0 0.00 0.00 0.00 47 1009.1
20260901143503 97 12 8.0 13.0 0.00 0.00 0.00 47 1009.1
20260901143003 97 17 8.0 13.0 0.00 0.00 0.00 47 1009.3
20260901142503 97 10 7.0 12.0 0.00 0.00 0.00 48 1009.1
20260901142003 97 25 10.0 18.0 0.00 0.00 0.00 48 1009.0
20260901141503 98 22 9.0 13.0 0.00 0.00 0.00 48 1009.1
20260901141003 98 19 6.0 11.0 0.00 0.00 0.00 48 1009.0
20260901140503 98 20 8.0 14.0 0.00 0.00 0.00 48 1009.2
20260901140003 98 22 10.0 15.0 0.00 0.00 0.00 47 1009.2
20260901135503 98 25 6.0 12.0 0.00 0.00 0.00 48 1009.2